Weather History for KRKD - October, 2010

Change the Weather History Date:

Saturday, October 23, 2010

  Actual Average Record
Temperature  
Mean Temperature 42 °F -  
Max Temperature 50 °F 50 °F 64 °F (2007)
Min Temperature 35 °F 36 °F 21 °F (1997)
Degree Days  
Heating Degree Days 22    
Moisture  
Dew Point 21 °F    
Average Humidity 46    
Maximum Humidity 56    
Minimum Humidity 30    
Precipitation  
Precipitation 0.00 in - - ()
Sea Level Pressure  
Sea Level Pressure 29.87 in    
Wind  
Wind Speed 17 mph (West)    
Max Wind Speed 24 mph    
Max Gust Speed 33 mph    
Visibility 10 miles    
Events      
Averages and records for this station are not official NWS values.
T = Trace of Precipitation, MM = Missing Value Source: NWS Daily Summary

Daily Weather History Graph

Daily Weather History Graph

Search for Another Location

Airport or City:

Trip Planner

Search our weather history database for the weather conditions in past years. The results will help you decide how hot, cold, wet, or windy it might be!

Date:

Astronomy

Oct. 23, 2010 Rise Set
Actual Time 7:01 AM EDT 5:39 PM EDT
Civil Twilight 6:31 AM EDT 6:09 PM EDT
Nautical Twilight 5:57 AM EDT 6:42 PM EDT
Astronomical Twilight 5:24 AM EDT 7:16 PM EDT
Moon 5:35 PM EDT (10/23) 7:41 AM EDT (10/23)
Length of Visible Light 11h 37m
Length of Day
10h 38m
Full, 100% of the Moon is Illuminated
Oct 23
Full
Oct 30
Last Quarter
Nov 6
New
Nov 13
First Quarter
Nov 21
Full

Hourly Weather History & Observations

Time (EDT) Temp. Windchill Dew Point Humidity Pressure Visibility Wind Dir Wind Speed Gust Speed Precip Events Conditions
12:15 AM 37.4 °F 27.2 °F 19.4 °F 48% 29.83 in 10.0 mi West 19.6 mph 27.6 mph N/A   Partly Cloudy
12:35 AM 37.4 °F 28.2 °F 21.2 °F 52% 29.84 in 10.0 mi West 16.1 mph 24.2 mph N/A   Clear
12:55 AM 37.4 °F 28.5 °F 21.2 °F 52% 29.84 in 10.0 mi West 15.0 mph 21.9 mph N/A   Clear
1:15 AM 37.4 °F 28.9 °F 21.2 °F 52% 29.84 in 10.0 mi West 13.8 mph 24.2 mph N/A   Clear
1:35 AM 35.6 °F 28.0 °F 21.2 °F 56% 29.84 in 10.0 mi West 10.4 mph 16.1 mph N/A   Clear
1:55 AM 35.6 °F 25.5 °F 21.2 °F 56% 29.84 in 10.0 mi West 17.3 mph 23.0 mph N/A   Clear
2:15 AM 35.6 °F 26.6 °F 21.2 °F 56% 29.84 in 10.0 mi West 13.8 mph - N/A   Clear
2:35 AM 35.6 °F 25.5 °F 21.2 °F 56% 29.83 in 10.0 mi West 17.3 mph 21.9 mph N/A   Clear
2:55 AM 35.6 °F 25.5 °F 21.2 °F 56% 29.83 in 10.0 mi West 17.3 mph 23.0 mph N/A   Clear
3:15 AM 35.6 °F 26.2 °F 21.2 °F 56% 29.83 in 10.0 mi West 15.0 mph - N/A   Clear
3:35 AM 35.6 °F 27.1 °F 21.2 °F 56% 29.84 in 10.0 mi West 12.7 mph - N/A   Clear
3:55 AM 35.6 °F 26.6 °F 21.2 °F 56% 29.84 in 10.0 mi West 13.8 mph - N/A   Clear
4:15 AM 35.6 °F 26.2 °F 21.2 °F 56% 29.84 in 10.0 mi West 15.0 mph 20.7 mph N/A   Clear
4:35 AM 35.6 °F 25.9 °F 21.2 °F 56% 29.84 in 10.0 mi West 16.1 mph 21.9 mph N/A   Clear
4:55 AM 35.6 °F 24.5 °F 19.4 °F 52% 29.83 in 10.0 mi West 20.7 mph 28.8 mph N/A   Clear
5:15 AM 35.6 °F 24.8 °F 19.4 °F 52% 29.83 in 10.0 mi West 19.6 mph 25.3 mph N/A   Clear
5:35 AM 35.6 °F 26.2 °F 19.4 °F 52% 29.85 in 10.0 mi West 15.0 mph 23.0 mph N/A   Clear
5:55 AM 35.6 °F 25.5 °F 19.4 °F 52% 29.85 in 10.0 mi West 17.3 mph 24.2 mph N/A   Clear
6:15 AM 35.6 °F 26.2 °F 19.4 °F 52% 29.86 in 10.0 mi West 15.0 mph 20.7 mph N/A   Clear
6:35 AM 35.6 °F 26.2 °F 19.4 °F 52% 29.86 in 10.0 mi West 15.0 mph 23.0 mph N/A   Clear
6:55 AM 35.6 °F 26.2 °F 19.4 °F 52% 29.86 in 10.0 mi West 15.0 mph 20.7 mph N/A   Clear
7:15 AM 35.6 °F 26.6 °F 19.4 °F 52% 29.86 in 10.0 mi West 13.8 mph 23.0 mph N/A   Clear
7:35 AM 35.6 °F 25.5 °F 19.4 °F 52% 29.86 in 10.0 mi West 17.3 mph 24.2 mph N/A   Clear
7:55 AM 35.6 °F 24.0 °F 19.4 °F 52% 29.86 in 10.0 mi West 23.0 mph 31.1 mph N/A   Clear
8:15 AM 35.6 °F 25.2 °F 21.2 °F 56% 29.87 in 10.0 mi West 18.4 mph 27.6 mph N/A   Clear
8:35 AM 37.4 °F 26.9 °F 21.2 °F 52% 29.87 in 10.0 mi West 20.7 mph 29.9 mph N/A   Clear
8:55 AM 37.4 °F 27.5 °F 21.2 °F 52% 29.88 in 10.0 mi West 18.4 mph 25.3 mph N/A   Clear
9:15 AM 39.2 °F 29.8 °F 23.0 °F 52% 29.89 in 10.0 mi West 18.4 mph - N/A   Clear
9:35 AM 39.2 °F 30.8 °F 21.2 °F 49% 29.88 in 10.0 mi WNW 15.0 mph 25.3 mph N/A   Clear
9:55 AM 41.0 °F 33.1 °F 21.2 °F 45% 29.89 in 10.0 mi WNW 15.0 mph 26.5 mph N/A   Clear
10:15 AM 42.8 °F 36.6 °F 21.2 °F 42% 29.88 in 10.0 mi WNW 11.5 mph 31.1 mph N/A   Clear
10:35 AM 42.8 °F 33.3 °F 21.2 °F 42% 29.88 in 10.0 mi WNW 24.2 mph 33.4 mph N/A   Clear
10:55 AM 44.6 °F 35.7 °F 23.0 °F 43% 29.88 in 10.0 mi WNW 24.2 mph 32.2 mph N/A   Clear
11:15 AM 44.6 °F 37.4 °F 23.0 °F 43% 29.89 in 10.0 mi WNW 16.1 mph 24.2 mph N/A   Clear
11:35 AM 44.6 °F 35.9 °F 21.2 °F 39% 29.88 in 10.0 mi WNW 23.0 mph 31.1 mph N/A   Clear
11:55 AM 46.4 °F 39.8 °F 23.0 °F 40% 29.89 in 10.0 mi NW 16.1 mph 24.2 mph N/A   Clear
12:35 PM 48.2 °F - 23.0 °F 37% 29.88 in 10.0 mi WNW 23.0 mph 28.8 mph N/A   Clear
12:55 PM 48.2 °F - 23.0 °F 37% 29.88 in 10.0 mi WNW 21.9 mph 31.1 mph N/A   Clear
1:15 PM 48.2 °F - 21.2 °F 34% 29.88 in 10.0 mi WNW 23.0 mph 31.1 mph N/A   Clear
1:35 PM 48.2 °F - 23.0 °F 37% 29.88 in 10.0 mi WNW 18.4 mph 29.9 mph N/A   Clear
1:55 PM 48.2 °F - 21.2 °F 34% 29.88 in 10.0 mi West 23.0 mph 29.9 mph N/A   Clear
2:15 PM 48.2 °F - 21.2 °F 34% 29.89 in 10.0 mi WNW 18.4 mph 33.4 mph N/A   Clear
2:35 PM 50.0 °F - 21.2 °F 32% 29.89 in 10.0 mi WNW 19.6 mph 28.8 mph N/A   Clear
2:55 PM 50.0 °F - 21.2 °F 32% 29.90 in 10.0 mi WNW 16.1 mph 25.3 mph N/A   Clear
3:15 PM 50.0 °F - 21.2 °F 32% 29.90 in 10.0 mi WNW 21.9 mph 27.6 mph N/A   Clear
3:35 PM 50.0 °F - 19.4 °F 30% 29.91 in 10.0 mi WNW 18.4 mph 27.6 mph N/A   Clear
3:55 PM 50.0 °F - 21.2 °F 32% 29.92 in 10.0 mi WNW 17.3 mph 25.3 mph N/A   Clear
4:15 PM 48.2 °F - 21.2 °F 34% 29.93 in 10.0 mi WNW 12.7 mph 21.9 mph N/A   Clear
4:35 PM 48.2 °F - 21.2 °F 34% 29.95 in 10.0 mi WNW 17.3 mph 23.0 mph N/A   Clear
4:55 PM 48.2 °F - 21.2 °F 34% 29.96 in 10.0 mi WNW 10.4 mph 18.4 mph N/A   Clear
5:15 PM 46.4 °F 42.9 °F 21.2 °F 37% 29.97 in 10.0 mi WNW 6.9 mph - N/A   Clear
5:35 PM 46.4 °F 43.5 °F 21.2 °F 37% 29.98 in 10.0 mi NW 5.8 mph - N/A   Clear
5:55 PM 44.6 °F 40.2 °F 21.2 °F 39% 29.99 in 10.0 mi WNW 8.1 mph - N/A   Clear
6:15 PM 44.6 °F 39.7 °F 21.2 °F 39% 30.01 in 10.0 mi WNW 9.2 mph - N/A   Clear
6:35 PM 44.6 °F 40.7 °F 21.2 °F 39% 30.02 in 10.0 mi WNW 6.9 mph - N/A   Clear
6:55 PM 42.8 °F 41.1 °F 21.2 °F 42% 30.03 in 10.0 mi WNW 3.5 mph - N/A   Clear
7:15 PM 42.8 °F 40.1 °F 21.2 °F 42% 30.05 in 10.0 mi WNW 4.6 mph - N/A   Clear
7:35 PM 41.0 °F - 21.2 °F 45% 30.06 in 10.0 mi Calm Calm - N/A   Clear
7:55 PM 39.2 °F - 21.2 °F 49% 30.07 in 10.0 mi Calm Calm - N/A   Clear
8:35 PM 39.2 °F 37.0 °F 21.2 °F 49% 30.09 in 10.0 mi NNW 3.5 mph - N/A   Clear
8:55 PM 33.8 °F 30.8 °F 21.2 °F 60% 30.10 in 10.0 mi WNW 3.5 mph - N/A   Clear
9:15 PM 37.4 °F 33.8 °F 23.0 °F 56% 30.11 in 10.0 mi WNW 4.6 mph - N/A   Clear
9:35 PM 35.6 °F - 24.8 °F 65% 30.11 in 10.0 mi Calm Calm - N/A   Clear
9:55 PM 33.8 °F - 24.8 °F 70% 30.12 in 10.0 mi Calm Calm - N/A   Clear
10:35 PM 39.2 °F 35.0 °F 23.0 °F 52% 30.13 in 10.0 mi NW 5.8 mph - N/A   Clear
10:55 PM 39.2 °F 35.9 °F 23.0 °F 52% 30.13 in 10.0 mi NW 4.6 mph - N/A   Clear
11:15 PM 39.2 °F 34.2 °F 23.0 °F 52% 30.13 in 10.0 mi WNW 6.9 mph - N/A   Clear
11:35 PM 35.6 °F 31.7 °F 23.0 °F 60% 30.14 in 10.0 mi WNW 4.6 mph - N/A   Clear
11:55 PM 30.2 °F - 21.2 °F 69% 30.14 in 10.0 mi Calm Calm - N/A   Clear